Weather Roundup
Issued by NWS

Home | Current Version | Previous Version | Graphics & Text | Print | Product List | Glossary Off
Versions: 1 2 3 4 5 6 7 8 9 10 11 12 13 14 15 16 17 18 19 20 21 22 23 24 25 26 27 28 29 30 31 32 33 34 35 36 37 38 39 40 41 42 43 44 45 46 47 48 49 50

000
NZUS93 KARX 271559
HRRWXR

CURRENT HOURLY OBSERVATIONS ACROSS
MUCH OF THE UPPER MISSISSIPPI VALLEY
NATIONAL WEATHER SERVICE LA CROSSE WI
1100 AM CDT MON APR 27 2015


...SOUTHEAST MINNESOTA...


CITY           SKY/WX    TMP DP  RH WIND       PRES   REMARKS
ROCHESTER      SUNNY     55  33  43 N5        30.25R
ROCHESTER/MAYO FAIR      54  31  42 N5        30.24S
WINONA         SUNNY     55  32  41 W5        30.22F
AUSTIN         SUNNY     54  34  47 NE6       30.23S
ALBERT LEA     SUNNY     55  25  30 N13       30.23S
DODGE CENTER   SUNNY     55  34  44 NE7       30.24S
PRESTON        SUNNY     52  32  47 N8        30.23S
OWATONNA       SUNNY     57  27  30 N6        30.24R
FARIBAULT      SUNNY     57  28  33 NE8       30.25S
$$

...ELSEWHERE IN MINNESOTA...


CITY           SKY/WX    TMP DP  RH WIND       PRES   REMARKS
MINNEAPOLIS    SUNNY     59  29  31 NW7       30.25S
INTNL FALLS    SUNNY     60  23  24 VRB3      30.22S
DULUTH         SUNNY     59  27  29 N8        30.22S
RED WING       SUNNY     55  28  35 SW5       30.23F
REDWOOD FALLS  SUNNY     59  27  29 S3        30.26S
MANKATO        SUNNY     57  28  33 NE9       30.25S
WORTHINGTON    SUNNY     59  25  27 NE3       30.25S
FAIRMONT       SUNNY     59  27  29 N10       30.24S
$$

...SOUTHWEST WISCONSIN...


CITY           SKY/WX    TMP DP  RH WIND       PRES   REMARKS
LA CROSSE      SUNNY     56  31  38 NW6       30.21F
PRAIRIE DU CHI SUNNY     53  30  40 NW6       30.21S
BOSCOBEL       SUNNY     58  30  34 MISG      30.19F
LONE ROCK      NOT AVBL
PLATTEVILLE    SUNNY     53  33  46 N9        30.18F
FORT MC COY    SUNNY     55  28  34 NW8       30.20F
VIROQUA        FAIR      53  31  43 NW10G16   30.20S
WIS DELLS      SUNNY     55  30  38 N9        30.16F
$$

...ELSEWHERE IN WISCONSIN...


CITY           SKY/WX    TMP DP  RH WIND       PRES   REMARKS
MILWAUKEE      MOSUNNY   50  33  52 NE13      30.14S
MADISON        MOSUNNY   56  32  40 N10       30.16S
GREEN BAY      SUNNY     54  36  50 NE13      30.14R
EAU CLAIRE     NOT AVBL
BLACK RVR FLS  FAIR      56  28  34 N8        30.20S
MEDFORD        SUNNY     53  31  43 NW12G17   30.17S
WAUSAU         SUNNY     56  29  35 N9        30.13F
WIS RAPIDS     SUNNY     57  28  33 N12       30.18S
MARSHFIELD     SUNNY     57  32  38 NW12      30.17S
RICE LAKE      SUNNY     55  29  37 N5        30.23S
$$

...NORTHEAST IOWA...


CITY           SKY/WX    TMP DP  RH WIND       PRES   REMARKS
DECORAH        SUNNY     52  30  43 NW6       30.21S
MASON CITY     SUNNY     56  33  42 N9        30.24R
CHARLES CITY   SUNNY     54  32  43 VRB6      30.23R
OELWEIN        SUNNY     54  32  43 VRB3G12   30.21S
$$

...ELSEWHERE IN IOWA...


CITY           SKY/WX    TMP DP  RH WIND       PRES   REMARKS
DES MOINES     MOSUNNY   62  28  27 N8        30.20R
IOWA CITY      SUNNY     56  37  49 E10       30.20R
FORT DODGE     SUNNY     57  34  41 N8        30.22F
$$

...NORTHERN ILLINOIS...


CITY           SKY/WX    TMP DP  RH WIND       PRES   REMARKS
CHICAGO-OHARE  PTSUNNY   51  32  48 N14       30.12F
CHICAGO-MIDWAY MOSUNNY   54  34  46 N20G26    30.12F
MOLINE         SUNNY     56  34  43 VRB3      30.17S
ROCKFORD       SUNNY     56  33  42 N14       30.17F
PEORIA         SUNNY     57  34  41 N9G18     30.14S
$$

NOTE: "FAIR" INDICATES FEW OR NO CLOUDS BELOW 12,000 FEET WITH NO
SIGNIFICANT WEATHER AND/OR OBSTRUCTIONS TO VISIBILITY. WIND
SPEEDS ARE IN MILES-PER-HOUR.



USA.gov is the U.S. government's official web portal to all federal, state and local government web resources and services.